Weather History for Douglas, WY

Change the Weather History Date:

Friday, December 14, 2012

  Actual Average Record
Temperature  
Mean Temperature 32 °F 24 °F  
Max Temperature 46 °F 37 °F 58 °F (2002)
Min Temperature 18 °F 10 °F -16 °F (2008)
Degree Days  
Heating Degree Days 33 41  
Month to date heating degree days 337 564  
Since 1 July heating degree days 1884 2386  
Cooling Degree Days 0 0  
Month to date cooling degree days 0 0  
Year to date cooling degree days 831 486  
Moisture  
Dew Point 18 °F    
Average Humidity 56    
Maximum Humidity 77    
Minimum Humidity 34    
Precipitation  
Precipitation 0.00 in 0.01 in 0.20 in (1965)
Month to date precipitation T 0.20  
Year to date precipitation 5.26 13.19  
Sea Level Pressure  
Sea Level Pressure 29.72 in    
Wind  
Wind Speed 4 mph (NE)    
Max Wind Speed 10 mph    
Max Gust Speed 14 mph    
Visibility 10 miles    
Events      
T = Trace of Precipitation, MM = Missing Value Source: NWS Daily Summary

Daily Weather History Graph

Daily Weather History Graph

Search for Another Location

Airport:

Trip Planner

Search our weather history database for the weather conditions in past years. The results will help you decide how hot, cold, wet, or windy it might be!

Date:

Astronomy

Dec. 14, 2012 Rise Set
Actual Time 7:24 AM MST 4:28 PM MST
Civil Twilight 6:52 AM MST 5:00 PM MST
Nautical Twilight 6:16 AM MST 5:36 PM MST
Astronomical Twilight 5:42 AM MST 6:10 PM MST
Moon 8:30 AM MST (12/14) 6:25 PM MST (12/14)
Length of Visible Light 10h 07m
Length of Day
9h 03m
Waxing Crescent, 3% of the Moon is Illuminated
Dec 14
Waxing Crescent
Dec 19
First Quarter
Dec 28
Full
Jan 4
Last Quarter
Jan 11
New

Hourly Weather History & Observations

Time (MST) Temp. Windchill Dew Point Humidity Pressure Visibility Wind Dir Wind Speed Gust Speed Precip Events Conditions
12:53 AM 26.1 °F 20.5 °F 15.1 °F 63% 29.83 in 10.0 mi East 4.6 mph - N/A   Clear
1:53 AM 23.0 °F - 14.0 °F 68% 29.83 in 10.0 mi Calm Calm - N/A   Clear
2:53 AM 23.0 °F - 15.1 °F 72% 29.81 in 10.0 mi Calm Calm - N/A   Clear
4:53 AM 19.0 °F - 12.9 °F 77% 29.84 in 10.0 mi Calm Calm - N/A   Clear
5:53 AM 19.0 °F 12.3 °F 12.9 °F 77% 29.84 in 10.0 mi ESE 4.6 mph - N/A   Clear
6:53 AM 19.9 °F - 12.9 °F 74% 29.83 in 10.0 mi Calm Calm - N/A   Clear
7:53 AM 19.9 °F 14.9 °F 14.0 °F 78% 29.84 in 10.0 mi Variable 3.5 mph - N/A   Clear
8:53 AM 24.1 °F 17.0 °F 18.0 °F 77% 29.79 in 10.0 mi SE 5.8 mph - N/A   Clear
9:53 AM 32.0 °F - 19.0 °F 59% 29.77 in 10.0 mi Calm Calm - N/A   Clear
10:53 AM 34.0 °F 28.8 °F 21.0 °F 59% 29.73 in 10.0 mi NW 5.8 mph - N/A   Clear
11:53 AM 39.0 °F - 21.0 °F 49% 29.68 in 10.0 mi Calm Calm - N/A   Clear
12:53 PM 46.0 °F 41.9 °F 19.9 °F 35% 29.62 in 10.0 mi SSE 8.1 mph - N/A   Clear
1:53 PM 45.0 °F 40.6 °F 21.0 °F 39% 29.61 in 10.0 mi SE 8.1 mph - N/A   Clear
2:53 PM 45.0 °F 40.6 °F 21.0 °F 39% 29.60 in 10.0 mi ESE 8.1 mph - N/A   Clear
3:53 PM 39.9 °F 36.7 °F 19.0 °F 43% 29.62 in 10.0 mi NNE 4.6 mph - N/A   Clear
4:53 PM 35.1 °F 29.3 °F 19.9 °F 54% 29.65 in 10.0 mi South 6.9 mph - N/A   Clear
5:53 PM 33.1 °F - 19.0 °F 56% 29.66 in 10.0 mi Calm Calm - N/A   Clear
6:53 PM 34.0 °F - 19.9 °F 56% 29.64 in 10.0 mi Calm Calm - N/A   Clear
7:53 PM 30.9 °F 27.5 °F 19.9 °F 64% 29.66 in 10.0 mi West 3.5 mph - N/A   Clear
8:53 PM 28.9 °F 25.2 °F 19.9 °F 69% 29.66 in 10.0 mi NNW 3.5 mph - N/A   Clear
9:53 PM 28.9 °F 20.4 °F 19.0 °F 67% 29.65 in 10.0 mi NW 9.2 mph - N/A   Clear
10:53 PM 27.0 °F 17.3 °F 18.0 °F 69% 29.67 in 10.0 mi NNW 10.4 mph - N/A   Clear
11:53 PM 27.0 °F 18.7 °F 17.1 °F 66% 29.67 in 10.0 mi NNW 8.1 mph - N/A   Mostly Cloudy